Regional Weather Roundup
Issued by NWS

Home | Current Version | Previous Version | Graphics & Text | Print | Product List | Glossary On
Versions: 1 2 3 4 5 6 7 8 9 10 11 12 13 14 15 16 17 18 19 20 21 22 23 24 25 26 27 28 29 30 31 32 33 34 35 36 37 38 39 40 41 42 43 44 45 46 47 48 49 50
000
ASUS44 KMEG 211410
RWRTN
TENNESSEE HOURLY STATE WEATHER ROUNDUP
NATIONAL WEATHER SERVICE MEMPHIS TN
800 AM CST SUN DEC 21 2014

TNZ002-004-019-021-049-052-054-088>092-211500-
WEST TENNESSEE

CITY           SKY/WX    TMP DP  RH WIND       PRES   REMARKS
MEMPHIS INTL   PTCLDY    35  29  78 CALM      30.21S
NWS MEMPHIS      N/A     30 N/A N/A MISG        N/A
JACKSON        CLEAR     32  28  85 CALM      30.23R
DYERSBURG      CLEAR     30  18  59 NE5       30.25S WCI  25
UNION CITY     CLEAR     27  27 100 CALM      30.23S
PARIS          CLEAR     28  25  86 E3        30.23S
HUNTINGDON     CLEAR     27  25  92 E3        30.23S
LEXINGTON      CLEAR     25  25 100 CALM      30.20F
SAVANNAH       CLEAR     27  25  93 CALM      30.22S
$$

TNZ008-025-027-028-033-062-065-066-211500-
NORTH MIDDLE TENNESSEE

CITY           SKY/WX    TMP DP  RH WIND       PRES   REMARKS
NASHVILLE      MOSUNNY   27  26  96 CALM      30.25F FOG
CLARKSVILLE    CLEAR     27  25  92 SE3       30.25S FOG
SMYRNA         FOG       24  23  96 CALM      30.26F VSB<1/4
COOKEVILLE     SUNNY     27  25  93 CALM      30.23R
CROSSVILLE     SUNNY     32  25  75 CALM      30.22R
$$

TNZ061-075-076-078-094-096-097-211500-
SOUTH MIDDLE TENNESSEE

CITY           SKY/WX    TMP DP  RH WIND       PRES   REMARKS
FAYETTEVILLE   SUNNY     32  27  80 MISG      30.20S
TULLAHOMA      SUNNY     30  27  86 E3        30.21S
WINCHESTER     SUNNY     27  25  93 CALM      30.21F
MCMINNVILLE    SUNNY     28  28 100 CALM      30.22S
COLUMBIA       SUNNY    N/A N/A N/A CALM      30.22R
SHELBYVILLE    SUNNY     27  27 100 CALM      30.23S
$$

TNZ017-018-042-046-047-211500-
NORTHEAST TENNESSEE

CITY           SKY/WX    TMP DP  RH WIND       PRES   REMARKS
TRI CITIES     PTSUNNY   39  37  92 N3        30.24S FOG
ELIZABETHTON   CLOUDY    36  36 100 CALM      30.23S FOG
$$

TNZ012-013-036-069-073-074-211500-
CENTRAL EAST TENNESSEE

CITY           SKY/WX    TMP DP  RH WIND       PRES   REMARKS
KNOXVILLE      CLOUDY    39  31  72 N6        30.23F WCI  35
OAK RIDGE      MOSUNNY   33  29  85 CALM      30.26S
GATLINBURG     CLOUDY    37  36  93 E3        30.24R
MORRISTOWN     CLOUDY    37  36  93 E6        30.24S WCI  33
$$

TNZ083-085-099-211500-
SOUTHEAST TENNESSEE

CITY           SKY/WX    TMP DP  RH WIND       PRES   REMARKS
CHATTANOOGA    CLOUDY    39  34  82 N3        30.25R
$$

SKY/WX REPORTED AS FAIR MEANS FEW OR NO CLOUDS BELOW
12 THOUSAND FEET.



USA.gov is the U.S. government's official web portal to all federal, state and local government web resources and services.